FW5619 Weather Reports


Display with metric or nautical units.
time (UTC)temp
F
wind
direction
speed
MPH
gust
MPH
rain 1hr
in
rain 24hr
in
rain mn
in
humidity
%
barometer
mb
20260506231019 55 209 7.0 12.0 0.00 0.03 0.03 94 1009.5
20260506230519 55 251 8.0 10.0 0.00 0.03 0.03 94 1009.4
20260506230020 55 264 5.0 14.0 0.00 0.03 0.03 94 1009.3
20260506225518 55 221 4.0 14.0 0.00 0.03 0.03 94 1009.3
20260506225018 55 256 8.0 12.0 0.00 0.03 0.03 94 1009.6
20260506224519 55 230 6.0 12.0 0.00 0.03 0.03 94 1009.4
20260506224018 55 252 7.0 13.0 0.00 0.03 0.03 94 1009.6
20260506223518 55 240 9.0 14.0 0.00 0.03 0.03 94 1009.6
20260506223017 55 219 8.0 14.0 0.00 0.03 0.03 94 1009.4
20260506222518 55 231 9.0 15.0 0.00 0.03 0.03 94 1009.4
20260506222017 55 236 9.0 15.0 0.00 0.03 0.03 93 1009.5
20260506221517 55 251 9.0 16.0 0.00 0.03 0.03 93 1009.6
20260506221017 55 238 9.0 16.0 0.00 0.03 0.03 93 1009.6
20260506220518 55 234 8.0 14.0 0.00 0.03 0.03 93 1009.4
20260506220017 55 234 8.0 14.0 0.00 0.03 0.03 93 1009.6
20260506215515 55 246 9.0 14.0 0.00 0.03 0.03 93 1009.5
20260506215019 56 233 9.0 16.0 0.00 0.03 0.03 94 1009.3
20260506214531 56 254 9.0 15.0 0.00 0.03 0.03 94 1009.2
20260506214015 56 210 9.0 15.0 0.00 0.03 0.03 94 1009.1
20260506213518 55 234 8.0 15.0 0.00 0.03 0.03 94 1009.0
20260506213019 55 241 9.0 17.0 0.00 0.03 0.03 94 1009.0
20260506212515 55 143 8.0 17.0 0.00 0.03 0.03 94 1008.9
20260506212015 56 232 9.0 16.0 0.00 0.03 0.03 94 1009.0
20260506211515 55 234 5.0 18.0 0.00 0.03 0.03 94 1008.8
20260506211015 55 218 8.0 19.0 0.00 0.03 0.03 94 1008.8
20260506210515 55 201 13.0 21.0 0.00 0.03 0.03 94 1008.7
20260506210019 55 192 12.0 20.0 0.00 0.03 0.03 94 1008.7
20260506205513 55 202 14.0 22.0 0.00 0.03 0.03 94 1008.8
20260506205014 55 212 14.0 22.0 0.00 0.03 0.03 94 1008.8
20260506204513 56 190 13.0 22.0 0.00 0.03 0.03 94 1008.8
20260506204013 56 196 15.0 22.0 0.00 0.03 0.03 94 1008.8
20260506203512 56 187 10.0 20.0 0.00 0.03 0.03 94 1008.8
20260506203012 56 202 7.0 14.0 0.00 0.03 0.03 94 1009.0
20260506202511 56 213 7.0 15.0 0.00 0.03 0.03 94 1009.0
20260506202011 56 232 9.0 15.0 0.00 0.03 0.03 94 1009.1
20260506201513 55 254 8.0 20.0 0.00 0.03 0.03 94 1009.0
20260506201014 55 214 8.0 20.0 0.00 0.03 0.03 94 1009.1
20260506200510 55 300 8.0 17.0 0.00 0.03 0.03 94 1009.2
20260506200011 55 231 9.0 23.0 0.00 0.03 0.03 93 1009.2
20260506195509 55 209 9.0 22.0 0.00 0.03 0.03 93 1009.1
20260506195009 55 188 8.0 21.0 0.00 0.03 0.03 93 1009.3
20260506194509 55 178 10.0 21.0 0.00 0.03 0.03 93 1009.3
20260506194012 55 227 12.0 19.0 0.00 0.03 0.03 93 1009.4
20260506193508 55 199 11.0 19.0 0.00 0.03 0.03 93 1009.4
20260506193008 55 219 11.0 27.0 0.00 0.03 0.03 93 1009.4
20260506192508 55 207 18.0 30.0 0.00 0.03 0.03 93 1009.3
20260506192007 55 223 21.0 30.0 0.00 0.03 0.03 93 1009.2
20260506191507 55 215 20.0 35.0 0.00 0.03 0.03 93 1009.2
20260506191007 55 199 19.0 32.0 0.00 0.03 0.03 93 1009.2
20260506190509 55 198 19.0 35.0 0.00 0.03 0.03 93 1009.1
20260506190009 55 202 19.0 35.0 0.00 0.03 0.03 93 1009.1
20260506185505 55 201 18.0 30.0 0.01 0.03 0.03 93 1009.3
20260506185004 55 191 21.0 30.0 0.01 0.03 0.03 93 1009.4
20260506184503 55 212 18.0 29.0 0.01 0.03 0.03 93 1009.5
20260506184004 55 188 19.0 30.0 0.02 0.03 0.03 93 1009.6
20260506183501 56 190 20.0 30.0 0.02 0.03 0.03 94 1009.8
20260506183003 56 221 17.0 30.0 0.02 0.03 0.03 94 1009.9
20260506182600 55 215 19.0 30.0 0.02 0.03 0.03 93 1010.0
20260506182100 55 203 17.0 27.0 0.02 0.03 0.03 93 1010.0
20260506182003 55 189 18.0 27.0 0.02 0.03 0.03 94 1010.0
20260506181623 55 229 18.0 28.0 0.02 0.03 0.03 94 1010.0
20260506181059 55 219 16.0 30.0 0.03 0.03 0.03 93 1010.2
20260506180601 55 199 18.0 30.0 0.03 0.03 0.03 93 1010.2
20260506180059 55 207 20.0 28.0 0.03 0.03 0.03 93 1010.3
20260506175558 55 227 21.0 31.0 0.02 0.02 0.02 93 1010.3
20260506175057 55 180 19.0 31.0 0.02 0.02 0.02 93 1010.3
20260506174557 55 188 20.0 29.0 0.02 0.02 0.02 93 1010.6
20260506174057 55 207 19.0 27.0 0.01 0.01 0.01 93 1010.7
20260506173557 55 194 17.0 26.0 0.01 0.01 0.01 93 1010.4
20260506173106 55 196 18.0 28.0 0.01 0.01 0.01 93 1010.7
20260506172556 55 236 19.0 28.0 0.01 0.01 0.01 93 1010.8
20260506172054 55 225 20.0 31.0 0.01 0.01 0.01 93 1011.1
20260506171555 55 199 22.0 33.0 0.01 0.01 0.01 93 1011.1
20260506171054 55 198 22.0 33.0 0.00 0.00 0.00 93 1011.2
20260506170554 55 200 22.0 33.0 0.00 0.00 0.00 93 1011.3
20260506170055 55 196 21.0 33.0 0.00 0.00 0.00 93 1011.1
20260506165555 56 200 24.0 31.0 0.00 0.00 0.00 92 1011.2
20260506165050 56 184 21.0 33.0 0.00 0.00 0.00 92 1011.3
20260506164551 56 198 23.0 34.0 0.00 0.00 0.00 92 1011.3
20260506164050 55 194 23.0 34.0 0.00 0.00 0.00 92 1011.5
20260506163550 55 208 22.0 34.0 0.00 0.00 0.00 92 1011.7
20260506163051 55 215 23.0 32.0 0.00 0.00 0.00 92 1011.8
20260506162550 55 192 21.0 32.0 0.00 0.00 0.00 92 1011.4
20260506162053 55 202 21.0 34.0 0.00 0.00 0.00 92 1011.5
20260506161550 55 203 23.0 33.0 0.00 0.00 0.00 92 1011.4
20260506161053 55 205 22.0 33.0 0.00 0.00 0.00 92 1011.3
20260506160549 55 205 23.0 30.0 0.00 0.00 0.00 92 1011.4
20260506160053 55 204 23.0 30.0 0.00 0.00 0.00 92 1011.4
20260506155551 55 199 22.0 30.0 0.00 0.00 0.00 92 1011.4
20260506155048 55 223 18.0 32.0 0.00 0.00 0.00 92 1011.4
20260506154547 55 192 20.0 31.0 0.00 0.00 0.00 92 1011.4
20260506154048 55 205 22.0 31.0 0.00 0.00 0.00 92 1011.5
20260506153547 55 195 22.0 32.0 0.00 0.00 0.00 92 1011.6
20260506153107 55 190 20.0 33.0 0.00 0.00 0.00 91 1011.7
20260506152546 55 194 22.0 32.0 0.00 0.00 0.00 91 1011.7
20260506152048 56 200 24.0 32.0 0.00 0.00 0.00 91 1011.8
20260506151546 56 210 20.0 33.0 0.00 0.00 0.00 91 1011.8
20260506151051 56 192 22.0 33.0 0.00 0.00 0.00 91 1011.7
20260506150546 56 184 21.0 31.0 0.00 0.00 0.00 91 1011.9
20260506150056 56 203 24.0 32.0 0.00 0.00 0.00 91 1011.6
20260506145548 56 175 21.0 32.0 0.00 0.00 0.00 91 1011.6
20260506145044 56 196 19.0 29.0 0.00 0.00 0.00 91 1011.5
20260506144554 56 229 18.0 34.0 0.00 0.00 0.00 91 1011.5
20260506144044 56 213 18.0 34.0 0.00 0.00 0.00 91 1011.6
20260506143545 56 195 18.0 32.0 0.00 0.00 0.00 91 1011.6
20260506143045 56 189 18.0 32.0 0.00 0.00 0.00 91 1011.5
20260506142543 56 219 18.0 30.0 0.00 0.00 0.00 92 1011.5
20260506142044 56 175 21.0 33.0 0.00 0.00 0.00 92 1011.7
20260506141542 56 192 21.0 30.0 0.00 0.00 0.00 92 1012.0
20260506141042 56 182 21.0 34.0 0.00 0.00 0.00 91 1012.1
20260506140548 56 209 20.0 34.0 0.00 0.00 0.00 92 1012.0
20260506140043 56 203 22.0 30.0 0.00 0.00 0.00 92 1012.0
20260506135541 56 209 21.0 33.0 0.00 0.00 0.00 92 1012.2
20260506135041 56 203 21.0 33.0 0.00 0.00 0.00 92 1012.2
20260506134541 56 204 20.0 32.0 0.00 0.00 0.00 92 1012.1
20260506134141 56 220 22.0 32.0 0.00 0.00 0.00 92 1012.3
20260506133540 56 202 21.0 34.0 0.00 0.00 0.00 92 1012.3
20260506133044 56 211 22.0 34.0 0.00 0.00 0.00 92 1012.2
20260506132543 56 201 23.0 36.0 0.00 0.00 0.00 92 1012.1
20260506132043 56 198 22.0 31.0 0.00 0.00 0.00 92 1012.2
20260506131546 56 177 22.0 31.0 0.00 0.00 0.00 92 1012.1
20260506131040 55 203 22.0 31.0 0.00 0.00 0.00 93 1012.1
20260506130543 55 188 21.0 28.0 0.00 0.00 0.00 93 1012.2
20260506130040 55 198 21.0 30.0 0.00 0.00 0.00 93 1012.0
20260506125539 55 204 21.0 30.0 0.00 0.00 0.00 92 1012.0
20260506125038 55 205 20.0 30.0 0.00 0.00 0.00 92 1012.2
20260506124539 55 198 21.0 30.0 0.00 0.00 0.00 92 1012.1
20260506124040 55 199 20.0 30.0 0.00 0.00 0.00 92 1012.2
20260506123540 55 206 19.0 26.0 0.00 0.00 0.00 92 1012.2
20260506123038 55 200 19.0 31.0 0.00 0.00 0.00 92 1012.4
20260506122538 56 217 20.0 31.0 0.00 0.00 0.00 92 1012.5
20260506122037 56 165 20.0 30.0 0.00 0.00 0.00 92 1012.4
20260506121536 55 218 21.0 30.0 0.00 0.00 0.00 93 1012.2
20260506121039 55 177 21.0 29.0 0.00 0.00 0.00 93 1012.1
20260506120536 55 202 20.0 29.0 0.00 0.00 0.00 93 1012.3
20260506120040 55 170 22.0 31.0 0.00 0.00 0.00 93 1012.3
20260506115536 55 194 20.0 30.0 0.00 0.00 0.00 93 1012.3
20260506115136 55 190 19.0 30.0 0.00 0.00 0.00 93 1012.3
20260506114536 55 200 20.0 31.0 0.00 0.00 0.00 93 1012.3
20260506114036 55 200 20.0 30.0 0.00 0.00 0.00 93 1012.3
20260506113535 55 201 22.0 30.0 0.00 0.00 0.00 93 1012.2
20260506113040 55 211 22.0 29.0 0.00 0.00 0.00 93 1012.2
20260506112535 55 202 21.0 30.0 0.00 0.00 0.00 93 1012.0
20260506112037 55 217 20.0 29.0 0.00 0.00 0.00 93 1012.1
20260506111533 55 218 19.0 29.0 0.00 0.00 0.00 93 1012.1
20260506111034 55 190 20.0 27.0 0.00 0.00 0.00 94 1012.3
20260506110534 55 171 19.0 27.0 0.00 0.00 0.00 94 1012.3
20260506110035 55 182 19.0 28.0 0.00 0.00 0.00 94 1012.4
20260506105534 55 192 21.0 30.0 0.00 0.00 0.00 94 1012.3
20260506105035 55 248 19.0 27.0 0.00 0.00 0.00 94 1012.3
20260506104534 55 247 20.0 32.0 0.00 0.00 0.00 93 1012.2
20260506104032 55 197 20.0 32.0 0.00 0.00 0.00 93 1012.1
20260506103531 55 217 20.0 31.0 0.00 0.00 0.00 93 1012.1
20260506103031 55 197 20.0 31.0 0.00 0.00 0.00 93 1012.1
20260506102530 55 192 22.0 31.0 0.00 0.00 0.00 93 1012.1
20260506102030 55 203 20.0 31.0 0.00 0.00 0.00 93 1012.0
20260506101530 55 196 21.0 31.0 0.00 0.00 0.00 93 1012.1
20260506101029 55 196 22.0 33.0 0.00 0.00 0.00 93 1012.0
20260506100529 55 200 23.0 32.0 0.00 0.00 0.00 93 1011.9
20260506100028 55 213 23.0 31.0 0.00 0.00 0.00 93 1012.1
20260506095527 55 196 23.0 31.0 0.00 0.00 0.00 93 1012.0
20260506095027 55 181 22.0 31.0 0.00 0.00 0.00 93 1011.9
20260506094526 55 211 21.0 31.0 0.00 0.00 0.00 93 1012.0
20260506094024 55 205 23.0 32.0 0.00 0.00 0.00 93 1012.0
20260506093524 55 185 22.0 32.0 0.00 0.00 0.00 93 1011.9
20260506093023 55 198 22.0 33.0 0.00 0.00 0.00 93 1012.0
20260506092522 55 201 21.0 29.0 0.00 0.00 0.00 93 1011.9
20260506092023 55 215 19.0 29.0 0.00 0.00 0.00 93 1011.9
20260506091521 55 193 21.0 33.0 0.00 0.00 0.00 93 1011.9
20260506091019 55 194 20.0 29.0 0.00 0.00 0.00 93 1012.0
20260506090519 55 196 22.0 31.0 0.00 0.00 0.00 93 1012.1
20260506090022 55 196 20.0 30.0 0.00 0.00 0.00 93 1012.2
20260506085518 55 209 22.0 30.0 0.00 0.00 0.00 92 1012.2
20260506085018 55 192 20.0 29.0 0.00 0.00 0.00 92 1012.2
20260506084520 55 197 21.0 30.0 0.00 0.00 0.00 92 1012.2
20260506084018 55 198 20.0 30.0 0.00 0.00 0.00 92 1012.2
20260506083518 55 194 19.0 29.0 0.00 0.00 0.00 92 1012.3
20260506083017 55 199 20.0 29.0 0.00 0.00 0.00 92 1012.3
20260506082517 55 219 20.0 29.0 0.00 0.00 0.00 92 1012.4
20260506082017 55 206 20.0 30.0 0.00 0.00 0.00 92 1012.4
20260506081520 55 196 22.0 30.0 0.00 0.00 0.00 92 1012.4
20260506081018 55 171 21.0 33.0 0.00 0.00 0.00 92 1012.3
20260506080518 55 186 22.0 33.0 0.00 0.00 0.00 92 1012.4
20260506073511 55 198 20.0 31.0 0.00 0.00 0.00 92 1012.3
20260506073011 55 198 18.0 31.0 0.00 0.00 0.00 91 1012.2
20260506072512 55 191 22.0 34.0 0.00 0.00 0.00 91 1012.4
20260506072010 55 197 19.0 30.0 0.00 0.00 0.00 91 1012.5
20260506071509 55 200 21.0 30.0 0.00 0.00 0.00 91 1012.5
20260506071008 55 186 21.0 30.0 0.00 0.00 0.00 91 1012.5
20260506070511 55 186 20.0 32.0 0.00 0.00 0.00 91 1012.4
20260506062507 55 214 22.0 30.0 0.00 0.00 0.00 90 1012.3
20260506062005 55 188 20.0 30.0 0.00 0.00 0.00 90 1012.4
20260506061505 55 186 21.0 28.0 0.00 0.00 0.00 91 1012.4
20260506061007 55 189 20.0 30.0 0.00 0.00 0.00 90 1012.4
20260506060504 55 211 21.0 30.0 0.00 0.00 0.00 90 1012.4
20260506051057 56 178 20.0 30.0 0.00 0.00 0.00 89 1012.9
20260506050556 56 208 22.0 31.0 0.00 0.00 0.00 88 1012.9
20260506050107 56 200 22.0 31.0 0.00 0.00 0.00 88 1012.9
20260506045053 57 207 22.0 34.0 0.00 0.00 0.00 88 1013.0
20260506044554 57 198 23.0 33.0 0.00 0.00 0.00 88 1012.9
20260506044052 57 216 22.0 32.0 0.00 0.00 0.00 88 1013.0
20260506043551 57 178 24.0 34.0 0.00 0.00 0.00 87 1013.0
20260506043052 57 188 23.0 34.0 0.00 0.00 0.00 87 1013.0
20260506042551 57 209 23.0 38.0 0.00 0.00 0.00 87 1013.0
20260506042051 57 198 24.0 38.0 0.00 0.00 0.00 87 1012.9
20260506041551 57 194 23.0 35.0 0.00 0.00 0.00 87 1012.8
20260506041050 57 198 24.0 34.0 0.00 0.00 0.00 87 1013.0
20260506040549 57 215 24.0 32.0 0.00 0.00 0.00 87 1013.0
20260506040048 57 209 25.0 36.0 0.00 0.00 0.00 87 1013.0
20260506035550 57 207 26.0 36.0 0.00 0.00 0.00 87 1013.0
20260506035048 57 208 24.0 34.0 0.00 0.00 0.00 87 1013.0
20260506034559 57 201 26.0 34.0 0.00 0.00 0.00 86 1012.9
20260506034046 57 222 25.0 34.0 0.00 0.00 0.00 86 1012.9
20260506033547 57 187 23.0 32.0 0.00 0.00 0.00 86 1012.9
20260506033047 58 204 23.0 35.0 0.00 0.00 0.00 86 1012.9
20260506032550 58 198 23.0 35.0 0.00 0.00 0.00 86 1012.8
20260506032049 58 205 25.0 35.0 0.00 0.00 0.00 86 1012.8
20260506031547 58 160 25.0 38.0 0.00 0.00 0.00 85 1012.8
20260506031046 58 213 23.0 38.0 0.00 0.00 0.00 85 1012.8
20260506030546 58 242 23.0 33.0 0.00 0.00 0.00 85 1012.8
20260506030046 58 169 24.0 37.0 0.00 0.00 0.00 86 1012.8
20260506025549 58 233 22.0 37.0 0.00 0.00 0.00 86 1012.9
20260506025044 58 192 21.0 33.0 0.00 0.00 0.00 85 1012.9
20260506024602 58 236 22.0 35.0 0.00 0.00 0.00 85 1012.9
20260506024044 58 219 24.0 35.0 0.00 0.00 0.00 85 1012.8
20260506023543 58 205 20.0 32.0 0.00 0.00 0.00 86 1012.9
20260506023044 58 206 21.0 32.0 0.00 0.00 0.00 86 1012.8
20260506022543 58 204 22.0 36.0 0.00 0.00 0.00 85 1012.9
20260506022043 58 202 24.0 36.0 0.00 0.00 0.00 85 1012.9
20260506021545 58 192 22.0 43.0 0.00 0.00 0.00 85 1012.8
20260506021042 58 198 26.0 38.0 0.00 0.00 0.00 85 1012.9
20260506020541 58 197 24.0 35.0 0.00 0.00 0.00 85 1012.9
20260506020042 58 184 23.0 35.0 0.00 0.00 0.00 85 1013.0
20260506015546 58 188 22.0 33.0 0.00 0.00 0.00 85 1012.8
20260506015042 58 201 24.0 32.0 0.00 0.00 0.00 85 1012.9
20260506014546 58 238 22.0 33.0 0.00 0.00 0.00 84 1012.8
20260506014045 58 195 23.0 33.0 0.00 0.00 0.00 84 1012.7
20260506013544 58 209 24.0 33.0 0.00 0.00 0.00 84 1012.7
20260506013058 58 240 24.0 33.0 0.00 0.00 0.00 84 1012.5
20260506012541 58 200 21.0 30.0 0.00 0.00 0.00 84 1012.7
20260506012041 58 200 21.0 30.0 0.00 0.00 0.00 83 1012.6
20260506011542 59 177 22.0 31.0 0.00 0.00 0.00 82 1012.6
20260506011040 59 222 23.0 33.0 0.00 0.00 0.00 82 1012.6
20260506010540 59 190 24.0 33.0 0.00 0.00 0.00 82 1012.4
20260506010040 59 192 24.0 35.0 0.00 0.00 0.00 83 1012.4
20260506005540 59 204 26.0 35.0 0.00 0.00 0.00 83 1012.3
20260506005038 59 190 23.0 35.0 0.00 0.00 0.00 82 1012.1
20260506004539 59 202 26.0 35.0 0.00 0.00 0.00 82 1012.1
20260506004039 60 187 25.0 38.0 0.00 0.00 0.00 81 1012.1
20260506003538 60 191 25.0 38.0 0.00 0.00 0.00 81 1012.0
20260506003039 60 203 25.0 36.0 0.00 0.00 0.00 81 1011.9
20260506002538 59 214 23.0 36.0 0.00 0.00 0.00 81 1011.8
20260506002042 59 228 25.0 38.0 0.00 0.00 0.00 81 1011.8
20260506001541 60 242 24.0 38.0 0.00 0.00 0.00 80 1011.8
20260506001038 60 209 25.0 38.0 0.00 0.00 0.00 79 1011.7
20260506000537 61 160 23.0 38.0 0.00 0.00 0.00 79 1011.5
20260506000037 61 215 25.0 38.0 0.00 0.00 0.00 79 1011.5
20260505235537 61 178 24.0 43.0 0.00 0.00 0.00 79 1011.4
20260505235036 61 215 21.0 43.0 0.00 0.00 0.00 80 1011.3
20260505234537 60 224 24.0 41.0 0.00 0.00 0.00 80 1011.3
20260505234036 60 226 25.0 41.0 0.00 0.00 0.00 80 1011.1
20260505233536 60 192 25.0 41.0 0.00 0.00 0.00 80 1011.0
20260505233035 60 195 28.0 40.0 0.00 0.00 0.00 80 1010.9
20260505232535 60 203 29.0 41.0 0.00 0.00 0.00 80 1010.8
20260505232035 60 197 26.0 41.0 0.00 0.00 0.00 80 1010.9
20260505231537 60 198 24.0 38.0 0.00 0.00 0.00 80 1010.9